Location: La Trinit�
(48.1620°N, 3.4512°W)
Time: 08:12:44
(UTC+00:00)

S3M - Pass Details

Date: 08 May 2021
Orbit: 948 x 1005 km, 83.0° (Epoch: 12 June)

Event Time Altitude Azimuth Distance (km) Brightness Sun altitude
Rises 20:03:24 0° 165° (SSE) 3,719 6.6 -4.6°
Reaches altitude 10° 20:06:02 10° 159° (SSE) 2,772 5.9 -4.9°
Maximum altitude 20:12:00 44° 89° (E) 1,359 4.5 -5.8°
Drops below altitude 10° 20:17:57 10° 20° (NNE) 2,766 6.6 -6.6°
Sets 20:20:34 0° 14° (NNE) 3,712 7.3 -6.9°
